Greenville Downtown, SC

6:51 AM EDT on April 23, 2017 (GMT -0400)
Greenville Downtown

Weather History for KGMU - June, 2013

Change the Weather History Date:

Friday, June 28, 2013

  Actual Average Record
Temperature  
Mean Temperature 82 °F -  
Max Temperature 93 °F 85 °F 95 °F (1993)
Min Temperature 72 °F 67 °F 64 °F (2006)
Cooling Degree Days 16    
Growing Degree Days 32 (Base 50)    
Moisture  
Dew Point 68 °F    
Average Humidity 66    
Maximum Humidity 87    
Minimum Humidity 41    
Precipitation  
Precipitation 0.00 in - - ()
Sea Level Pressure  
Sea Level Pressure 29.71 in    
Wind  
Wind Speed 6 mph (WSW)    
Max Wind Speed 13 mph    
Max Gust Speed 20 mph    
Visibility 10 miles    
Events Thunderstorm    
Averages and records for this station are not official NWS values.
T = Trace of Precipitation, MM = Missing Value Source: NWS Daily Summary

Daily Weather History Graph

Daily Weather History Graph

Search for Another Location

Airport or City:

Trip Planner

Search our weather history database for the weather conditions in past years. The results will help you decide how hot, cold, wet, or windy it might be!

Date:

Astronomy

Jun. 28, 2013 Rise Set
Actual Time 6:18 AM EDT 8:47 PM EDT
Civil Twilight 5:48 AM EDT 9:16 PM EDT
Nautical Twilight 5:12 AM EDT 9:53 PM EDT
Astronomical Twilight 4:32 AM EDT 10:33 PM EDT
Moon No Moon Rise 12:09 PM EDT (6/28)
Length of Visible Light 15h 27m
Length of Day
14h 28m
Waning Gibbous, 66% of the Moon is Illuminated
Jun 28
Waning Gibbous
Jun 30
Last Quarter
Jul 8
New
Jul 15
First Quarter
Jul 22
Full

Hourly Weather History & Observations

Time (EDT) Temp. Heat Index Dew Point Humidity Pressure Visibility Wind Dir Wind Speed Gust Speed Precip Events Conditions
12:53 AM 78.1 °F - 71.1 °F 79% 29.80 in 10.0 mi NW 4.6 mph - N/A   Mostly Cloudy
1:53 AM 77.0 °F - 71.1 °F 82% 29.78 in 10.0 mi NNW 4.6 mph - 0.00 in   Partly Cloudy
2:53 AM 75.0 °F - 71.1 °F 87% 29.77 in 10.0 mi WNW 4.6 mph - N/A   Clear
3:53 AM 75.0 °F - 69.1 °F 82% 29.77 in 10.0 mi NW 6.9 mph - N/A   Clear
4:53 AM 73.0 °F - 69.1 °F 87% 29.75 in 10.0 mi Calm Calm - N/A   Clear
5:53 AM 73.0 °F - 66.9 °F 81% 29.76 in 10.0 mi West 5.8 mph - N/A   Clear
6:53 AM 72.0 °F - 66.9 °F 84% 29.76 in 10.0 mi Calm Calm - N/A   Clear
7:53 AM 75.0 °F - 66.9 °F 76% 29.77 in 10.0 mi West 3.5 mph - N/A   Clear
8:53 AM 78.1 °F - 66.9 °F 68% 29.77 in 10.0 mi West 6.9 mph - N/A   Clear
9:53 AM 81.0 °F 83.3 °F 66.9 °F 62% 29.76 in 10.0 mi WSW 4.6 mph - N/A   Clear
10:53 AM 84.9 °F 88.2 °F 68.0 °F 57% 29.75 in 10.0 mi West 8.1 mph - N/A   Clear
11:53 AM 88.0 °F 91.4 °F 68.0 °F 51% 29.75 in 10.0 mi West 11.5 mph - N/A   Clear
12:53 PM 89.1 °F 93.7 °F 69.1 °F 52% 29.73 in 10.0 mi WNW 8.1 mph 16.1 mph N/A   Clear
1:53 PM 91.0 °F 94.3 °F 66.9 °F 45% 29.72 in 10.0 mi SW 10.4 mph - N/A   Clear
2:53 PM 91.0 °F 95.6 °F 69.1 °F 48% 29.68 in 10.0 mi WSW 11.5 mph - N/A   Clear
3:53 PM 91.9 °F 97.4 °F 70.0 °F 48% 29.65 in 10.0 mi SW 8.1 mph - N/A   Clear
4:53 PM 91.9 °F 95.4 °F 66.9 °F 44% 29.64 in 10.0 mi South 9.2 mph - N/A   Partly Cloudy
5:53 PM 91.0 °F 92.6 °F 64.0 °F 41% 29.63 in 10.0 mi SSW 8.1 mph - N/A   Clear
6:53 PM 88.0 °F 90.7 °F 66.9 °F 49% 29.61 in 10.0 mi SSW 8.1 mph - N/A   Clear
7:53 PM 87.1 °F 91.3 °F 69.1 °F 55% 29.64 in 10.0 mi SW 8.1 mph - N/A   Mostly Cloudy
8:01 PM 87.8 °F 92.6 °F 69.8 °F 55% 29.68 in 10.0 mi SW 10.4 mph - N/A Thunderstorm Mostly Cloudy
8:36 PM 78.8 °F - 68.0 °F 69% 29.70 in 10.0 mi SSW 11.5 mph 19.6 mph 0.00 in   Mostly Cloudy
8:53 PM 77.0 °F - 69.1 °F 76% 29.67 in 10.0 mi SW 12.7 mph 19.6 mph 0.00 in   Mostly Cloudy
9:53 PM 75.0 °F - 68.0 °F 79% 29.66 in 10.0 mi WSW 10.4 mph - N/A   Clear
10:53 PM 75.9 °F - 66.9 °F 74% 29.67 in 10.0 mi WSW 10.4 mph - N/A   Clear
11:53 PM 73.9 °F - 68.0 °F 82% 29.68 in 10.0 mi WSW 8.1 mph - N/A   Clear